QPF
0.00 0.00 0.00 0.00 0.00 0.00 0.00 0.00 0.00 0.00 0.00 0.00 0.00 0.00 0.00 0.00 0.00 0.00 0.00 0.00 0.00 0.00 0.00 0.00 0.00 0.00 0.00 0.00 0.00 0.00 0.00 0.00 0.00 0.00 0.00 0.01 0.00 0.00 0.00 0.00 0.00 0.00 0.00 0.00 0.00
0.00 0.00 0.00 0.00 0.00 0.00 0.00 0.00 0.00 0.00 0.00 0.00 0.00 0.00 0.00 0.00 0.00 0.00 0.00 0.00 0.00 0.00 0.00 0.00 0.00 0.00 0.00 0.00 0.00 0.00 0.00 0.02 0.02 0.05 0.04 0.01 0.01 0.00 0.00 0.01 0.00 0.00 0.00 0.00 0.00
0.00 0.00 0.00 0.00 0.00 0.00 0.00 0.00 0.00 0.00 0.00 0.00 0.00 0.00 0.00 0.00 0.00 0.00 0.00 0.00 0.00 0.00 0.00 0.00 0.00 0.00 0.00 0.00 0.00 0.00 0.00 0.00 0.01 0.01 0.01 0.02 0.01 0.01 0.01 0.00 0.00 0.00 0.00 0.00 0.00
0.00 0.00 0.00 0.00 0.00 0.00 0.00 0.00 0.00 0.00 0.00 0.00 0.00 0.00 0.00 0.00 0.00 0.00 0.00 0.00 0.00 0.00 0.00 0.00 0.00 0.00 0.00 0.00 0.00 0.00 0.00 0.00 0.00 0.01 0.01 0.01 0.00 0.00 0.01 0.01 0.00 0.00 0.00 0.00 0.00
0.00 0.00 0.00 0.00 0.00 0.00 0.00 0.00 0.00 0.00 0.00 0.00 0.00 0.00 0.00 0.00 0.00 0.00 0.00 0.00 0.00 0.00 0.00 0.00 0.00 0.00 0.00 0.00 0.00 0.00 0.00 0.00 0.00 0.00 0.00 0.00 0.00 0.01 0.00 0.00 0.00 0.00 0.00 0.00 0.00
0.00 0.00 0.00 0.00 0.00 0.00 0.00 0.00 0.00 0.00 0.00 0.00 0.00 0.00 0.00 0.00 0.00 0.00 0.00 0.00 0.00 0.00 0.00 0.00 0.00 0.00 0.00 0.00 0.00 0.00 0.00 0.00 0.00 0.00 0.01 0.00 0.00 0.00 0.02 0.00 0.00 0.00 0.00 0.00 0.00
0.00 0.00 0.00 0.00 0.00 0.00 0.00 0.00 0.00 0.00 0.00 0.00 0.00 0.00 0.00 0.00 0.00 0.00 0.00 0.00 0.00 0.00 0.00 0.00 0.00 0.00 0.00 0.00 0.00 0.00 0.00 0.00 0.00 0.00 0.00 0.00 0.00 0.00 0.00 0.00 0.00 0.00 0.00 0.00 0.00
0.00 0.00 0.00 0.00 0.00 0.00 0.00 0.00 0.00 0.00 0.00 0.00 0.00 0.00 0.00 0.00 0.00 0.00 0.00 0.00 0.00 0.00 0.00 0.00 0.00 0.00 0.00 0.00 0.00 0.00 0.00 0.00 0.00 0.00 0.00 0.00 0.00 0.00 0.00 0.00 0.00 0.00 0.00 0.00 0.00
0.00 0.00 0.00 0.00 0.00 0.00 0.00 0.00 0.00 0.00 0.00 0.00 0.00 0.00 0.00 0.00 0.00 0.00 0.00 0.00 0.00 0.00 0.00 0.00 0.00 0.00 0.00 0.00 0.00 0.00 0.00 0.00 0.00 0.00 0.00 0.00 0.00 0.00 0.00 0.00 0.00 0.00 0.00 0.00 0.00
0.00 0.00 0.00 0.00 0.00 0.00 0.00 0.00 0.00 0.00 0.00 0.00 0.00 0.00 0.00 0.00 0.00 0.00 0.00 0.00 0.00 0.00 0.00 0.00 0.00 0.00 0.00 0.00 0.00 0.00 0.00 0.00 0.00 0.00 0.00 0.00 0.00 0.00 0.00 0.00 0.00 0.00 0.00 0.00 0.00
0.00 0.00 0.00 0.00 0.00 0.00 0.00 0.00 0.00 0.00 0.00 0.00 0.00 0.00 0.00 0.00 0.00 0.00 0.00 0.00 0.00 0.00 0.00 0.00 0.00 0.00 0.00 0.00 0.00 0.00 0.00 0.00 0.00 0.00 0.00 0.00 0.00 0.00 0.00 0.00 0.00 0.00 0.00 0.00 0.00
0.00 0.00 0.00 0.00 0.00 0.00 0.00 0.00 0.00 0.00 0.00 0.00 0.00 0.00 0.00 0.00 0.00 0.00 0.00 0.00 0.00 0.00 0.00 0.00 0.00 0.00 0.00 0.00 0.00 0.00 0.00 0.00 0.00 0.00 0.00 0.00 0.00 0.00 0.00 0.00 0.00 0.00 0.00 0.00 0.00
0.00 0.00 0.00 0.00 0.00 0.00 0.00 0.00 0.00 0.00 0.00 0.00 0.00 0.00 0.00 0.00 0.00 0.00 0.00 0.00 0.00 0.00 0.00 0.00 0.00 0.00 0.00 0.00 0.00 0.00 0.00 0.00 0.00 0.00 0.00 0.00 0.00 0.00 0.00 0.00 0.00 0.00 0.00 0.00 0.00
0.00 0.00 0.00 0.00 0.00 0.00 0.00 0.00 0.00 0.00 0.00 0.00 0.00 0.00 0.00 0.00 0.00 0.00 0.00 0.00 0.00 0.00 0.00 0.00 0.00 0.00 0.00 0.00 0.00 0.00 0.00 0.00 0.00 0.00 0.00 0.00 0.00 0.00 0.00 0.00 0.00 0.00 0.00 0.00 0.00
0.00 0.00 0.00 0.00 0.00 0.00 0.00 0.00 0.00 0.00 0.00 0.00 0.00 0.00 0.00 0.00 0.00 0.00 0.00 0.00 0.00 0.00 0.00 0.00 0.00 0.00 0.00 0.00 0.00 0.00 0.00 0.00 0.00 0.00 0.00 0.00 0.00 0.00 0.00 0.00 0.00 0.00 0.00 0.00 0.00
0.00 0.00 0.00 0.00 0.00 0.00 0.00 0.00 0.00 0.00 0.00 0.00 0.00 0.00 0.00 0.00 0.00 0.00 0.00 0.00 0.00 0.00 0.00 0.00 0.00 0.00 0.00 0.00 0.00 0.00 0.00 0.00 0.00 0.00 0.00 0.00 0.00 0.00 0.00 0.00 0.00 0.00 0.00 0.00 0.00
0.00 0.00 0.00 0.00 0.00 0.00 0.00 0.00 0.00 0.00 0.00 0.00 0.00 0.00 0.00 0.00 0.00 0.00 0.00 0.00 0.00 0.00 0.00 0.00 0.00 0.00 0.00 0.00 0.00 0.00 0.00 0.00 0.00 0.00 0.00 0.00 0.00 0.00 0.00 0.00 0.00 0.00 0.00 0.00 0.00
0.00 0.00 0.00 0.00 0.00 0.00 0.00 0.00 0.00 0.00 0.00 0.00 0.00 0.00 0.00 0.00 0.00 0.00 0.00 0.00 0.00 0.00 0.00 0.00 0.00 0.00 0.00 0.00 0.00 0.00 0.00 0.00 0.00 0.00 0.00 0.00 0.00 0.00 0.00 0.00 0.00 0.00 0.00 0.00 0.00
0.00 0.00 0.00 0.00 0.00 0.00 0.00 0.00 0.00 0.00 0.00 0.00 0.00 0.00 0.00 0.00 0.00 0.00 0.00 0.00 0.00 0.00 0.00 0.00 0.00 0.00 0.00 0.00 0.00 0.00 0.00 0.00 0.00 0.00 0.00 0.00 0.00 0.00 0.00 0.00 0.00 0.00 0.00 0.00 0.00
0.00 0.00 0.00 0.00 0.00 0.00 0.00 0.00 0.00 0.00 0.00 0.00 0.00 0.00 0.00 0.00 0.00 0.00 0.00 0.00 0.00 0.00 0.00 0.00 0.00 0.00 0.00 0.00 0.00 0.00 0.00 0.00 0.00 0.00 0.00 0.00 0.00 0.00 0.00 0.00 0.00 0.00 0.00 0.00 0.00
0.00 0.00 0.00 0.00 0.00 0.00 0.00 0.00 0.00 0.00 0.00 0.00 0.00 0.00 0.00 0.00 0.00 0.00 0.00 0.00 0.00 0.00 0.00 0.00 0.00 0.00 0.00 0.00 0.00 0.00 0.00 0.00 0.00 0.00 0.00 0.00 0.00 0.00 0.00 0.00 0.00 0.00 0.00 0.00 0.00
0.00 0.00 0.00 0.00 0.00 0.00 0.00 0.00 0.00 0.00 0.00 0.00 0.00 0.00 0.00 0.00 0.00 0.00 0.00 0.00 0.00 0.00 0.00 0.00 0.00 0.00 0.00 0.00 0.00 0.00 0.00 0.00 0.00 0.00 0.00 0.00 0.00 0.00 0.00 0.00 0.00 0.00 0.00 0.00 0.00
0.00 0.00 0.00 0.00 0.00 0.00 0.00 0.00 0.00 0.00 0.00 0.00 0.00 0.00 0.00 0.00 0.00 0.00 0.00 0.00 0.00 0.00 0.00 0.00 0.00 0.00 0.00 0.00 0.00 0.00 0.00 0.00 0.00 0.00 0.00 0.00 0.00 0.00 0.00 0.00 0.00 0.00 0.00 0.00 0.00
0.00 0.00 0.00 0.00 0.00 0.00 0.00 0.00 0.00 0.00 0.00 0.00 0.00 0.00 0.00 0.00 0.00 0.00 0.00 0.00 0.00 0.00 0.00 0.00 0.00 0.00 0.00 0.00 0.00 0.00 0.00 0.00 0.00 0.00 0.00 0.00 0.00 0.00 0.00 0.00 0.00 0.00 0.00 0.00 0.00
0.00 0.00 0.00 0.00 0.00 0.00 0.00 0.00 0.00 0.00 0.00 0.00 0.00 0.00 0.00 0.00 0.00 0.00 0.00 0.00 0.00 0.00 0.00 0.00 0.00 0.00 0.00 0.00 0.00 0.00 0.00 0.00 0.00 0.00 0.00 0.00 0.00 0.00 0.00 0.00 0.00 0.00 0.00 0.00 0.00
0.00 0.00 0.00 0.00 0.00 0.00 0.00 0.00 0.00 0.00 0.00 0.00 0.00 0.00 0.00 0.00 0.00 0.00 0.00 0.00 0.00 0.00 0.00 0.00 0.00 0.00 0.00 0.00 0.00 0.00 0.00 0.00 0.00 0.00 0.00 0.00 0.00 0.00 0.00 0.00 0.00 0.00 0.00 0.00 0.00
0.00 0.00 0.00 0.00 0.00 0.00 0.00 0.00 0.00 0.00 0.00 0.00 0.00 0.00 0.00 0.00 0.00 0.00 0.00 0.00 0.00 0.00 0.00 0.00 0.00 0.00 0.00 0.00 0.00 0.00 0.00 0.00 0.00 0.00 0.00 0.00 0.00 0.00 0.00 0.00 0.00 0.00 0.00 0.00 0.00
MSLP
1019.17 1018.85 1018.57 1018.35 1018.12 1017.83 1017.49 1017.16 1016.85 1016.60 1016.38 1016.15 1015.89 1015.54 1015.12 1014.72 1013.89 1013.70 1012.71 1010.38 1010.16 1009.84 1010.06 1010.05 1010.21 1010.44 1010.67 1010.55 1010.56 1011.48 1012.39 1012.51 1012.21 1011.91 1010.70 1009.47 1009.04 1008.76 1009.08 1009.19 1009.63 1009.87 1010.86 1012.10 1013.16
1019.19 1018.93 1018.63 1018.32 1018.06 1017.78 1017.44 1017.14 1016.79 1016.55 1016.30 1016.05 1015.84 1015.51 1015.07 1014.74 1014.11 1012.47 1009.69 1009.44 1009.56 1009.73 1010.00 1009.94 1009.73 1010.08 1010.23 1009.89 1009.79 1010.35 1011.28 1010.52 1010.15 1010.00 1009.82 1009.07 1008.91 1009.02 1009.35 1009.43 1010.80 1011.02 1011.81 1012.44 1013.19
1019.16 1018.89 1018.60 1018.26 1017.91 1017.67 1017.37 1017.04 1016.67 1016.40 1016.19 1015.97 1015.71 1015.43 1015.06 1014.72 1013.71 1009.99 1008.11 1008.54 1009.26 1009.55 1009.58 1009.79 1009.64 1009.99 1009.67 1008.80 1008.61 1009.03 1009.29 1009.40 1009.03 1008.92 1008.87 1009.30 1008.49 1008.68 1008.96 1009.71 1010.38 1011.15 1012.15 1012.59 1013.31
1019.13 1018.78 1018.47 1018.14 1017.81 1017.46 1017.18 1016.90 1016.61 1016.35 1016.11 1015.89 1015.63 1015.34 1014.99 1014.68 1012.25 1008.40 1007.86 1008.15 1009.07 1009.50 1009.70 1009.52 1009.57 1009.77 1009.39 1008.90 1007.52 1007.94 1007.62 1007.80 1007.48 1008.25 1008.44 1008.35 1008.03 1008.36 1008.50 1008.62 1009.55 1010.75 1011.56 1012.21 1012.96
1019.05 1018.67 1018.27 1017.91 1017.60 1017.27 1016.94 1016.68 1016.45 1016.23 1016.05 1015.80 1015.51 1015.20 1014.83 1013.98 1010.88 1007.95 1008.04 1008.47 1009.19 1009.53 1009.62 1009.69 1009.66 1009.60 1009.34 1008.32 1007.77 1007.18 1007.25 1007.15 1006.90 1007.11 1007.38 1007.45 1007.63 1007.92 1008.17 1008.61 1009.65 1010.69 1011.43 1012.01 1012.60
1018.94 1018.52 1018.11 1017.69 1017.32 1016.96 1016.64 1016.42 1016.21 1015.99 1015.83 1015.64 1015.38 1015.24 1014.81 1012.53 1008.18 1007.94 1008.30 1008.88 1009.02 1009.35 1009.38 1009.48 1009.30 1009.30 1009.04 1008.37 1007.83 1007.27 1007.12 1006.95 1006.79 1007.00 1007.20 1007.35 1007.54 1007.51 1008.16 1008.37 1009.52 1010.33 1011.01 1011.66 1012.06
1018.82 1018.37 1017.91 1017.49 1017.08 1016.69 1016.35 1016.14 1015.90 1015.69 1015.50 1015.36 1015.21 1014.99 1014.09 1010.12 1008.05 1008.13 1008.34 1008.56 1008.76 1009.00 1009.19 1008.83 1009.22 1009.88 1009.13 1008.41 1007.39 1007.24 1007.73 1007.39 1007.09 1007.13 1007.27 1007.51 1007.87 1007.74 1007.92 1008.39 1009.13 1009.86 1010.47 1011.29 1011.59
1018.72 1018.22 1017.75 1017.28 1016.80 1016.39 1016.00 1015.70 1015.49 1015.25 1015.11 1015.04 1014.84 1014.71 1012.43 1008.34 1008.27 1008.46 1008.56 1008.60 1008.65 1008.77 1008.71 1008.60 1008.95 1009.35 1009.24 1008.24 1007.76 1008.27 1008.11 1007.94 1007.47 1007.41 1007.44 1007.71 1007.78 1007.80 1007.78 1008.36 1009.22 1009.63 1010.23 1010.72 1011.15
1018.54 1018.07 1017.58 1017.06 1016.59 1016.16 1015.61 1015.05 1014.78 1014.67 1014.71 1014.66 1014.82 1014.16 1011.09 1007.76 1007.81 1007.20 1007.76 1008.13 1008.42 1008.71 1008.61 1008.51 1008.99 1009.31 1008.88 1009.40 1009.67 1009.13 1008.66 1008.43 1007.69 1007.07 1007.41 1007.83 1007.61 1006.98 1007.26 1007.89 1008.57 1009.25 1009.82 1010.25 1010.79
1018.30 1017.76 1017.28 1016.86 1016.42 1015.94 1015.26 1014.42 1014.14 1014.27 1014.48 1014.33 1013.75 1013.52 1009.88 1007.48 1006.53 1006.54 1007.12 1007.65 1008.31 1008.63 1009.05 1009.05 1009.58 1009.82 1010.08 1010.49 1010.54 1009.41 1009.07 1008.20 1007.16 1006.74 1007.19 1007.61 1007.45 1007.06 1007.17 1007.47 1007.96 1008.63 1009.22 1009.76 1010.11
1018.00 1017.43 1016.95 1016.58 1016.22 1015.89 1015.18 1014.27 1014.27 1014.01 1013.47 1011.73 1010.81 1009.83 1007.99 1006.82 1006.07 1006.47 1006.53 1007.31 1008.07 1008.85 1009.58 1009.50 1010.33 1010.47 1010.22 1010.16 1009.72 1009.54 1009.08 1008.42 1007.08 1006.14 1006.56 1006.92 1007.07 1006.78 1006.52 1007.16 1007.67 1008.12 1008.67 1009.12 1009.46
1017.67 1017.05 1016.55 1016.20 1015.97 1015.79 1015.90 1014.51 1011.72 1010.90 1010.89 1009.62 1008.98 1008.49 1007.19 1007.05 1006.96 1006.23 1006.40 1007.50 1008.11 1009.04 1009.60 1010.32 1010.23 1009.65 1009.65 1009.68 1009.63 1009.21 1008.72 1007.53 1006.05 1005.75 1006.43 1006.61 1006.57 1006.24 1006.19 1005.98 1006.47 1007.23 1007.78 1008.25 1009.09
1017.31 1016.64 1016.16 1015.79 1015.49 1015.55 1014.74 1012.34 1009.88 1010.13 1010.25 1008.00 1007.46 1007.50 1006.75 1006.43 1006.35 1005.94 1006.29 1007.03 1007.82 1008.82 1009.49 1010.00 1008.91 1008.78 1009.34 1008.94 1009.10 1008.35 1008.00 1007.02 1006.54 1005.71 1005.98 1006.27 1006.54 1006.13 1005.89 1005.69 1005.92 1006.11 1006.51 1007.45 1007.85
1016.87 1016.29 1015.82 1015.29 1015.37 1014.37 1012.98 1009.74 1009.96 1010.45 1010.33 1007.63 1006.59 1005.40 1005.58 1005.78 1005.56 1005.02 1005.54 1006.70 1007.69 1008.39 1009.03 1009.42 1008.17 1008.52 1008.50 1008.48 1008.03 1007.94 1006.45 1006.58 1006.59 1006.74 1006.88 1006.70 1006.54 1006.17 1005.49 1005.39 1005.18 1005.45 1005.94 1006.48 1007.06
1016.38 1015.87 1015.60 1015.58 1015.39 1013.79 1010.35 1009.83 1009.95 1010.20 1009.46 1006.10 1005.54 1004.01 1004.39 1005.34 1005.06 1004.88 1005.12 1006.14 1007.15 1007.87 1008.68 1007.99 1007.53 1007.52 1007.55 1006.97 1006.77 1006.87 1006.32 1006.68 1006.89 1007.25 1007.74 1007.47 1007.63 1005.23 1005.05 1004.81 1004.36 1004.50 1004.89 1005.42 1005.88
1015.67 1015.30 1015.14 1015.19 1015.15 1011.68 1010.39 1009.91 1009.58 1010.31 1007.72 1005.45 1004.43 1004.48 1005.03 1005.35 1005.11 1005.05 1005.52 1005.95 1006.45 1007.56 1007.94 1007.71 1006.69 1006.68 1005.86 1005.36 1005.38 1005.38 1006.26 1007.29 1008.11 1008.79 1009.33 1007.71 1008.00 1005.58 1005.03 1003.39 1003.28 1003.28 1003.86 1004.38 1005.08
1014.53 1014.44 1014.63 1013.78 1012.15 1010.65 1010.15 1010.41 1010.85 1009.85 1006.44 1005.25 1004.60 1004.56 1005.03 1005.39 1005.36 1005.54 1006.07 1006.57 1007.06 1007.95 1008.26 1007.43 1006.36 1005.47 1005.20 1005.18 1005.03 1005.64 1007.55 1008.99 1010.17 1010.65 1009.89 1008.40 1008.01 1005.16 1002.95 1001.97 1001.65 1002.05 1002.64 1003.38 1004.19
1013.62 1012.74 1012.63 1011.91 1010.79 1011.01 1010.84 1011.51 1010.80 1008.34 1006.44 1004.97 1004.35 1004.78 1005.09 1005.07 1005.02 1005.16 1005.79 1006.65 1006.94 1007.26 1008.07 1007.90 1006.25 1004.65 1004.27 1004.42 1005.08 1005.88 1007.55 1009.10 1010.51 1011.37 1009.86 1008.27 1006.83 1003.55 1001.54 1000.52 1000.81 1001.07 1001.49 1002.35 1003.37
1013.00 1012.35 1012.35 1010.04 1010.47 1011.34 1011.71 1011.79 1009.96 1007.85 1006.42 1005.66 1004.91 1005.28 1005.56 1005.24 1005.27 1005.47 1005.61 1005.69 1005.72 1006.31 1007.28 1007.00 1005.86 1004.25 1003.74 1003.51 1004.03 1005.45 1006.90 1007.71 1009.64 1010.72 1010.63 1008.13 1005.71 1002.74 1001.00 1000.89 1000.98 1000.95 1001.56 1001.88 1002.46
1013.79 1012.65 1010.77 1008.81 1009.91 1010.94 1011.79 1011.52 1009.46 1007.36 1006.33 1005.21 1005.20 1005.24 1005.77 1005.52 1005.30 1005.39 1005.23 1004.37 1004.54 1004.56 1005.03 1005.72 1005.76 1003.89 1002.98 1002.66 1003.51 1004.23 1005.44 1007.68 1009.57 1010.52 1010.42 1008.39 1006.18 1003.53 1001.71 1001.03 1000.71 1001.03 1001.12 1001.41 1001.99
1013.64 1012.44 1009.10 1008.67 1009.64 1011.23 1011.87 1010.80 1008.75 1006.90 1006.50 1005.84 1004.95 1005.07 1005.21 1005.34 1005.09 1005.12 1004.59 1003.85 1003.82 1003.82 1004.14 1004.94 1005.58 1003.91 1003.59 1003.47 1003.83 1004.45 1005.34 1006.91 1008.38 1009.42 1009.69 1008.79 1006.35 1003.24 1002.22 1001.11 1000.49 1000.54 1000.49 1000.78 1001.62
1014.95 1012.87 1009.24 1008.97 1010.67 1011.36 1011.44 1009.90 1008.36 1006.95 1005.58 1005.31 1004.53 1004.56 1005.01 1005.46 1005.38 1004.99 1004.57 1004.05 1003.22 1003.11 1003.84 1003.96 1004.74 1005.04 1003.99 1002.87 1002.92 1003.51 1004.37 1005.78 1007.92 1008.78 1008.77 1007.88 1005.55 1003.23 1002.09 1001.56 1001.13 1001.02 1000.73 1000.92 1001.54
1016.61 1013.89 1009.56 1009.47 1011.13 1011.97 1011.00 1009.82 1008.51 1007.26 1006.30 1005.71 1004.97 1004.76 1004.97 1005.53 1005.88 1005.41 1004.72 1004.14 1003.84 1003.32 1003.35 1003.97 1004.66 1005.13 1004.62 1003.73 1003.30 1003.55 1004.09 1005.00 1006.03 1007.07 1007.44 1007.37 1005.09 1003.01 1002.01 1001.72 1000.98 1001.04 1001.16 1001.23 1001.67
1016.85 1014.89 1012.33 1011.54 1012.14 1012.45 1011.98 1010.33 1008.85 1007.37 1006.58 1006.22 1005.93 1005.25 1005.36 1005.76 1005.91 1005.84 1005.73 1005.10 1004.67 1004.33 1003.87 1003.74 1004.63 1004.92 1004.67 1004.05 1003.88 1003.77 1003.74 1004.24 1005.22 1006.47 1006.40 1005.89 1004.48 1003.25 1002.10 1001.52 1001.41 1001.26 1001.54 1001.56 1001.94
1016.85 1016.48 1015.58 1014.73 1013.61 1013.41 1012.52 1011.02 1009.57 1008.18 1007.35 1007.20 1006.91 1007.34 1007.15 1006.98 1006.95 1006.99 1006.77 1006.32 1005.41 1005.36 1005.27 1005.26 1005.57 1005.23 1004.80 1004.27 1003.88 1003.75 1003.70 1003.71 1004.35 1005.01 1005.07 1005.06 1004.45 1003.26 1002.30 1001.55 1001.37 1001.39 1001.54 1002.15 1002.36
1017.64 1017.50 1016.60 1016.01 1014.90 1014.06 1012.91 1011.92 1010.80 1009.42 1008.67 1008.66 1008.74 1008.36 1008.22 1008.45 1008.46 1008.31 1007.95 1007.63 1007.34 1006.61 1006.79 1006.59 1006.70 1006.28 1005.40 1004.64 1004.07 1003.72 1003.51 1003.40 1003.58 1004.14 1004.37 1004.74 1004.35 1003.34 1002.43 1002.02 1002.30 1002.26 1002.29 1002.23 1002.53
1018.54 1017.82 1017.59 1016.59 1015.73 1014.84 1013.94 1012.70 1011.65 1010.93 1009.64 1009.29 1009.03 1008.78 1008.60 1008.53 1008.31 1008.22 1008.30 1008.21 1008.11 1008.27 1008.08 1007.99 1007.87 1007.84 1007.08 1005.65 1004.76 1004.14 1003.36 1003.05 1003.10 1003.58 1004.11 1005.07 1005.13 1004.18 1003.63 1003.71 1003.90 1003.56 1003.23 1003.14 1003.11
Thickness
5750 5754 5756 5758 5760 5763 5766 5769 5772 5776 5778 5781 5785 5789 5793 5797 5804 5806 5806 5829 5832 5835 5832 5829 5824 5819 5817 5808 5814 5804 5757 5756 5766 5768 5779 5802 5794 5812 5815 5801 5803 5805 5790 5784 5784
5749 5752 5755 5758 5759 5762 5765 5769 5772 5776 5779 5782 5785 5789 5794 5797 5801 5807 5837 5839 5838 5836 5828 5821 5815 5816 5802 5809 5812 5792 5757 5776 5799 5797 5789 5804 5802 5798 5795 5798 5785 5786 5787 5785 5781
5748 5751 5754 5757 5760 5762 5765 5769 5773 5777 5780 5783 5787 5790 5793 5797 5800 5821 5850 5847 5841 5838 5834 5828 5824 5812 5802 5817 5814 5802 5785 5800 5807 5810 5810 5797 5808 5810 5797 5785 5792 5781 5778 5782 5776
5747 5751 5754 5758 5761 5764 5767 5770 5774 5777 5780 5784 5787 5790 5793 5796 5792 5843 5853 5851 5843 5838 5831 5826 5819 5803 5800 5796 5821 5796 5817 5815 5823 5816 5811 5803 5814 5805 5807 5808 5811 5798 5791 5787 5778
5747 5751 5756 5759 5762 5766 5769 5772 5775 5778 5781 5784 5788 5791 5795 5793 5806 5851 5852 5849 5842 5836 5826 5819 5810 5806 5794 5810 5814 5811 5816 5826 5830 5829 5825 5824 5813 5809 5811 5817 5814 5803 5794 5787 5782
5748 5753 5757 5761 5764 5768 5771 5774 5777 5780 5783 5786 5789 5791 5793 5786 5849 5852 5850 5845 5841 5834 5827 5823 5817 5819 5807 5809 5808 5819 5821 5823 5828 5822 5824 5815 5812 5818 5814 5820 5809 5801 5793 5791 5787
5749 5754 5758 5762 5766 5770 5774 5777 5780 5783 5786 5788 5790 5793 5792 5808 5850 5850 5850 5844 5843 5837 5825 5832 5828 5811 5813 5806 5826 5823 5803 5811 5816 5817 5812 5820 5800 5802 5817 5818 5807 5802 5799 5794 5790
5749 5755 5759 5764 5769 5773 5777 5781 5784 5787 5789 5790 5792 5793 5796 5847 5848 5845 5846 5842 5843 5841 5837 5838 5835 5817 5812 5824 5815 5802 5801 5781 5807 5813 5816 5814 5775 5805 5818 5814 5802 5802 5800 5796 5793
5750 5755 5760 5765 5770 5774 5780 5786 5789 5791 5791 5792 5792 5793 5799 5851 5840 5852 5848 5836 5837 5835 5836 5840 5829 5811 5814 5788 5771 5783 5766 5779 5791 5817 5814 5808 5789 5815 5823 5815 5806 5803 5801 5798 5794
5750 5756 5761 5765 5770 5775 5782 5790 5792 5792 5791 5792 5797 5787 5817 5829 5849 5853 5852 5843 5828 5825 5817 5815 5801 5787 5780 5764 5741 5764 5772 5788 5787 5812 5809 5799 5797 5813 5820 5818 5813 5808 5806 5802 5800
5750 5756 5761 5765 5769 5773 5781 5788 5786 5785 5790 5799 5806 5810 5828 5844 5855 5843 5848 5836 5827 5811 5784 5800 5775 5761 5774 5778 5785 5784 5779 5775 5798 5822 5806 5797 5798 5808 5823 5819 5812 5807 5806 5803 5803
5750 5756 5761 5764 5767 5770 5771 5781 5798 5809 5789 5815 5820 5820 5836 5837 5818 5832 5844 5812 5805 5783 5790 5779 5759 5785 5793 5789 5783 5783 5776 5781 5810 5824 5808 5801 5799 5815 5824 5826 5824 5816 5813 5813 5807
5749 5756 5760 5764 5768 5768 5773 5790 5814 5814 5786 5811 5821 5815 5824 5831 5815 5818 5828 5814 5799 5783 5780 5761 5783 5799 5789 5787 5778 5784 5777 5789 5794 5816 5816 5810 5792 5808 5820 5829 5828 5831 5830 5824 5820
5749 5754 5759 5764 5767 5772 5779 5808 5808 5806 5757 5788 5809 5821 5827 5826 5811 5840 5835 5813 5797 5778 5778 5772 5798 5791 5785 5779 5787 5763 5807 5805 5802 5791 5763 5806 5765 5790 5812 5815 5826 5828 5828 5828 5827
5748 5753 5756 5757 5757 5771 5798 5804 5805 5794 5733 5809 5806 5845 5830 5810 5818 5820 5836 5814 5785 5783 5780 5776 5793 5785 5779 5790 5799 5788 5807 5805 5805 5793 5779 5784 5761 5793 5818 5807 5821 5829 5831 5834 5837
5750 5754 5756 5756 5754 5783 5796 5800 5797 5742 5733 5794 5814 5805 5802 5805 5809 5819 5813 5820 5811 5788 5789 5785 5811 5803 5799 5813 5812 5822 5809 5787 5778 5765 5741 5780 5767 5778 5794 5820 5828 5838 5837 5839 5840
5757 5758 5757 5762 5771 5787 5793 5782 5734 5719 5792 5789 5791 5798 5793 5789 5796 5798 5790 5782 5769 5756 5752 5777 5793 5809 5816 5799 5813 5802 5764 5724 5729 5722 5729 5769 5759 5790 5825 5839 5846 5842 5844 5845 5844
5761 5769 5770 5774 5783 5780 5778 5748 5724 5760 5774 5802 5799 5790 5780 5790 5791 5795 5784 5771 5782 5778 5752 5750 5752 5801 5819 5803 5789 5790 5765 5725 5714 5712 5738 5775 5754 5798 5840 5858 5857 5857 5856 5854 5847
5763 5769 5768 5785 5783 5774 5755 5719 5732 5759 5781 5779 5789 5773 5771 5786 5787 5783 5776 5783 5790 5783 5756 5746 5761 5813 5819 5821 5813 5789 5764 5779 5749 5742 5728 5755 5788 5825 5845 5843 5842 5845 5846 5849 5847
5750 5760 5771 5791 5782 5767 5737 5723 5747 5779 5783 5787 5765 5776 5759 5770 5775 5769 5768 5797 5796 5806 5801 5780 5755 5802 5818 5826 5817 5802 5801 5761 5733 5730 5723 5742 5760 5775 5820 5831 5842 5840 5842 5848 5851
5752 5752 5780 5788 5778 5746 5721 5728 5758 5781 5779 5773 5775 5770 5770 5767 5776 5772 5774 5797 5806 5804 5805 5786 5770 5792 5809 5791 5784 5785 5777 5769 5756 5738 5724 5720 5754 5811 5823 5837 5844 5847 5855 5849 5846
5732 5738 5776 5780 5736 5730 5725 5748 5768 5771 5786 5778 5788 5784 5773 5768 5763 5770 5773 5787 5812 5809 5778 5792 5770 5756 5779 5811 5813 5799 5789 5772 5736 5740 5736 5735 5753 5821 5824 5833 5837 5838 5847 5850 5846
5713 5726 5772 5769 5721 5719 5737 5750 5762 5762 5767 5768 5775 5781 5779 5766 5751 5765 5776 5796 5798 5800 5793 5790 5756 5736 5758 5784 5798 5794 5793 5786 5768 5752 5748 5737 5755 5822 5826 5827 5833 5835 5840 5842 5843
5709 5715 5734 5739 5732 5726 5721 5733 5740 5766 5765 5763 5762 5772 5766 5757 5758 5754 5756 5777 5790 5788 5794 5792 5757 5755 5752 5766 5780 5778 5784 5790 5772 5732 5749 5752 5779 5803 5824 5830 5828 5832 5835 5838 5839
5704 5701 5707 5696 5711 5711 5719 5726 5732 5735 5752 5745 5743 5737 5735 5731 5732 5728 5745 5754 5774 5772 5775 5768 5753 5764 5766 5774 5780 5780 5781 5785 5775 5770 5760 5772 5775 5792 5806 5817 5822 5829 5830 5830 5833
5690 5686 5690 5688 5698 5703 5704 5709 5715 5727 5731 5719 5716 5724 5719 5709 5720 5716 5727 5734 5738 5753 5745 5749 5737 5741 5754 5769 5771 5764 5777 5780 5781 5780 5776 5773 5772 5797 5807 5812 5809 5814 5817 5822 5825
5679 5685 5679 5681 5685 5688 5687 5696 5704 5709 5721 5724 5718 5712 5706 5710 5720 5726 5730 5730 5732 5730 5727 5725 5721 5716 5713 5746 5750 5736 5762 5772 5779 5775 5769 5743 5763 5786 5785 5789 5788 5795 5803 5806 5813